User: anonymous   Login
Location: Unspecified
(0.0000°N, 0.0000°E)
Time: 12:50:14
(UTC+00:00)
Language:

AGILE - Orbit

View from above orbital plane
View from above orbital plane
View from above satellite
View from above satellite

Ground track
Ground track

The orbit data is extracted from the following two-line orbital elements,

1 31135U 07013A   15122.61267635  .00005969  00000-0  19164-3 0  9994
2 31135 002.4693 017.2328 0014565 194.3454 165.6186 15.24635763444741
Epoch (UTC): 02 May 2015 14:42:15
Eccentricity: 0.0014565
inclination: 2.4693°
perigee height: 482 km
apogee height: 502 km
right ascension of ascending node: 17.2328°
argument of perigee: 194.3454°
revolutions per day: 15.24635763
mean anomaly at epoch: 165.6186°
orbit number at epoch: 44474

The dashed part of the orbit path shows where the satellite is in the earth's shadow,  

DLR